Home   Weather   Cleveland   Past weeks

Flag for USA Past Weather in Cleveland, Ohio, USA — Yesterday and Last 2 Weeks

Now
42 °F

Mostly cloudy.


Feels Like: 38 °F
Forecast: 39 / 47 °F
Wind: 7 mph from North

Location: Cleveland-Hopkins International Airport

Current Time: Jan 22, 2017 at 11:34:40 pm

Latest Report: Jan 22, 2017 at 10:51 pm


Visibility: 8 mi

Pressure: 29.59 "Hg

Humidity: 85%

Dew Point: 38 °F

Location of ClevelandLocation

Past Weather in Cleveland — Graph

°F

Cleveland Temperature Yesterday

Maximum temperature yesterday: 63 °F (at 12:51 pm)
Minimum temperature yesterday: 44 °F (at 1:39 am)
Average temperature yesterday: 54 °F

High & Low Weather Summary for the Past Weeks

 TemperatureHumidityPressure
High64 °F (Jan 12, 3:51 am)93% (Jan 22, 6:51 am)30.78 "Hg (Jan 22, 6:51 am)
Low12 °F (Jan 8, 4:51 am)44% (Jan 9, 11:51 am)29.57 "Hg (Jan 22, 2:51 pm)
Average38 °F74%30.13 "Hg
* Reported Jan 7 9:57 pm — Jan 22 9:51 pm, Cleveland, Weather by CustomWeather, © 2017

Note: Actual official high and low records may vary slightly from our data, if they occured in-between our weather recording intervals... More about our weather records

Advertising

Cleveland Weather History for the Previous 24 Hours

Scroll right to see more
 ConditionsComfort  
Time TempWeatherWind HumidityBarometerVisibility
9:51 pm
Sun, Jan 22
43 °FMostly cloudy.8 mph82%29.60 "Hg10 mi
8:51 pm45 °FOvercast.6 mph82%29.60 "Hg10 mi
7:51 pm46 °FMostly cloudy.5 mph79%29.61 "Hg10 mi
6:51 pm45 °FMostly cloudy.5 mph80%29.60 "Hg10 mi
5:51 pm46 °FMostly cloudy.5 mph79%29.59 "Hg10 mi
4:51 pm53 °FMostly cloudy.8 mph77%29.59 "Hg10 mi
3:51 pm56 °FMostly cloudy.10 mph75%29.58 "Hg10 mi
2:51 pm61 °FMostly cloudy.7 mph65%29.57 "Hg10 mi
1:51 pm61 °FPartly sunny.8 mph67%29.59 "Hg10 mi
12:51 pm62 °FPartly sunny.5 mph62%29.61 "Hg10 mi
11:51 am62 °FPartly sunny.No wind62%29.63 "Hg10 mi
10:51 am59 °FPartly sunny.5 mph72%29.66 "Hg10 mi
9:51 am53 °FBroken clouds.3 mph83%29.67 "Hg8 mi
8:51 am49 °FPartly sunny.7 mph86%29.66 "Hg7 mi
7:51 am50 °FBroken clouds.3 mph86%29.65 "Hg7 mi
6:51 am47 °FPassing clouds.5 mph93%29.65 "Hg9 mi
5:51 am51 °FPassing clouds.No wind83%29.62 "Hg10 mi
4:51 am52 °FPassing clouds.7 mph83%29.63 "Hg10 mi
3:51 am54 °FPartly cloudy.3 mph77%29.65 "Hg10 mi
2:51 am56 °FPassing clouds.8 mph77%29.66 "Hg10 mi
1:51 am56 °FPassing clouds.8 mph77%29.66 "Hg10 mi
12:51 am57 °FMostly cloudy.10 mph78%29.66 "Hg10 mi
11:51 pm
Sat, Jan 21
58 °FMostly cloudy.12 mph75%29.68 "Hg10 mi
Weather by CustomWeather, © 2017

See weather overviewHow to use our weather pages